CAPE
3643 1945 1845 2506 1737 1639 1535 1246 1637 2010 2396 2751 2560 2949 2926 2613 2171 1732 1670 1106 529 0
3384 3267 2229 3138 3234 2047 2801 1535 1650 1858 2359 2411 2643 2919 3017 2631 2401 1746 1840 1315 994 285
3198 3385 3410 3557 3535 3421 3307 2958 2022 2129 2101 2434 2642 2945 3145 2748 2583 2232 1623 1172 1032 783
3139 2788 3189 2976 3599 3705 3763 3824 3255 2983 2433 2222 2688 3187 3314 3216 2556 2424 1986 1276 1033 1104
3424 3332 3080 3317 3440 3649 3719 4009 4022 3452 3142 2733 2586 3320 3272 3074 2476 2491 2153 1631 1260 1130
3307 3330 3503 3635 3565 3591 3723 3917 3577 3867 3981 3532 3127 3233 3200 3035 2841 2568 2353 1877 1722 1255
3343 3405 3398 3554 3573 3562 3758 3901 4008 4007 4187 3940 3597 3317 3056 2845 2920 2941 2458 2172 1785 1571
3304 3560 3626 3687 3705 3769 3854 3836 3920 4000 4063 3934 3570 2623 3369 3465 3369 3530 2922 2468 2074 1742
3403 3742 3674 3727 3827 3898 3868 3961 4017 3946 3928 3778 2983 1773 1131 2574 3397 3493 3516 3422 3002 2376
3535 3696 3784 3602 3754 3947 3967 3776 3996 3922 3915 3880 3837 1751 586 979 3262 3472 3745 3805 3600 2402
3640 3655 3760 3894 3909 4044 3914 3844 4063 4026 3988 3966 3847 2227 307 365 2628 3331 3819 3855 3815 3720
3539 3748 3876 3963 3975 4053 3596 3619 3381 3484 4004 4265 3733 1725 191 117 2310 2748 3562 3965 3869 3777
3719 3894 3956 3941 3920 3714 3635 2997 2815 2895 3602 3221 3645 2982 231 0 1792 2249 2285 3149 3353 2069
3926 4160 4076 4208 4001 3790 3507 3418 3601 3367 3664 3515 3425 3527 1345 0 1003 1518 1790 2330 2556 2919
CIN
-3 -32 -25 -2 -4 -2 -0 -0 -0 -0 -0 -0 -0 -0 -0 -0 -1 -10 -11 -39 -69 -0
-30 -21 -26 -3 -4 -10 -0 -0 -0 -0 -0 -2 -1 -0 -0 -0 -4 -28 -30 -45 -60 -136
-55 -40 -33 -9 -11 -7 -0 -2 -0 -0 -2 -2 -1 -0 -0 -0 -0 -9 -44 -62 -78 -89
-71 -80 -63 -49 -23 -23 -16 -0 -8 -0 -4 -4 -0 -0 -0 -0 -0 -6 -26 -70 -85 -82
-99 -78 -74 -73 -52 -42 -31 -15 -7 -4 -3 -3 -0 -0 -0 -1 -2 -11 -29 -59 -81 -86
-127 -105 -86 -81 -90 -68 -54 -34 -32 -7 -0 -2 -1 -0 -1 -6 -4 -11 -25 -45 -56 -97
-169 -156 -135 -113 -114 -100 -75 -56 -40 -24 -10 -8 -9 -5 -13 -15 -7 -3 -30 -33 -58 -68
-238 -187 -150 -126 -110 -102 -82 -78 -71 -49 -26 -24 -16 -53 -14 -3 -11 -4 -13 -29 -62 -74
-245 -196 -199 -165 -123 -101 -97 -79 -69 -58 -46 -38 -47 -154 -267 -114 -35 -26 -3 -0 -12 -29
-238 -223 -210 -200 -152 -140 -125 -98 -84 -79 -66 -54 -50 -211 -490 -389 -51 -37 -11 -0 -0 -43
-243 -237 -213 -188 -198 -180 -154 -144 -113 -103 -87 -63 -74 -239 -744 -671 -126 -57 -1 -0 -0 -0
-272 -256 -233 -234 -247 -189 -173 -149 -134 -88 -55 -39 -47 -276 -784 -835 -136 -91 -5 -0 -0 -0
-291 -266 -270 -258 -204 -203 -191 -226 -197 -169 -99 -109 -39 -62 -740 -0 -82 -30 -10 -5 -3 -123
-270 -251 -248 -196 -189 -184 -186 -143 -145 -165 -98 -107 -89 -99 -475 -0 -312 -152 -38 -8 -35 -9
Wind_Speed
19 15 14 14 13 11 11 10 10 12 13 13 11 10 9 8 8 8 8 8 7 5
18 19 16 16 13 13 11 11 11 13 14 14 13 12 11 9 9 9 9 9 8 8
19 19 18 15 16 15 13 14 13 14 15 14 13 13 13 11 11 11 9 9 10 9
19 21 19 18 18 17 16 14 16 14 15 15 14 14 14 13 12 14 13 12 11 12
20 20 20 20 20 18 18 17 16 16 16 16 16 15 16 17 15 16 16 15 13 14
21 21 21 21 20 20 19 18 19 17 17 17 17 17 18 17 17 17 16 16 16 15
22 23 21 20 20 20 19 19 19 18 18 19 18 18 19 18 17 17 17 17 17 16
21 19 19 19 19 19 19 19 19 19 19 19 19 17 19 19 18 18 18 17 18 17
19 19 20 19 19 19 19 19 19 20 20 20 18 21 21 21 18 18 18 17 17 16
18 19 19 18 18 20 20 18 20 20 21 21 21 18 22 23 18 18 18 18 16 17
18 18 17 18 20 20 18 20 19 19 20 19 18 16 20 22 23 19 17 18 18 17
19 19 18 20 21 16 16 16 16 16 17 18 16 11 13 17 21 21 18 16 18 18
18 18 20 18 16 14 15 16 14 17 16 16 15 11 14 16 14 13 9 15 18 23
16 17 16 14 14 14 15 13 15 15 14 14 16 17 20 23 16 15 15 17 14 14
Wind_Direction
210 215 218 221 236 223 231 221 214 202 215 216 217 215 203 204 212 202 209 211 234 245
207 214 215 222 212 230 227 229 213 209 213 214 213 212 207 225 204 208 208 203 216 231
208 210 213 213 218 216 223 220 221 206 213 213 213 214 211 215 210 210 210 215 201 220
207 209 210 213 212 215 213 214 213 206 211 214 214 211 211 223 218 210 213 213 206 210
204 206 209 210 212 209 211 210 209 209 206 210 213 211 212 214 215 212 213 209 211 212
207 206 210 208 209 209 208 207 209 209 207 208 211 212 214 216 217 216 216 213 211 211
207 208 207 208 208 208 208 208 207 208 208 209 210 214 218 217 221 220 218 217 216 212
209 210 208 210 209 210 209 210 209 207 209 211 212 214 214 217 215 217 218 215 215 214
205 205 207 208 207 209 212 212 212 213 211 213 217 213 203 210 215 215 214 214 212 219
206 207 207 207 208 212 212 211 215 215 215 216 220 208 197 199 219 217 213 210 209 209
205 207 205 207 212 212 210 214 215 216 219 222 222 205 200 193 214 225 219 213 215 213
203 204 202 209 212 209 213 217 222 225 225 232 239 206 199 195 217 228 227 217 216 213
203 204 207 209 209 208 212 217 220 222 225 229 240 213 190 199 235 239 255 236 220 209
205 206 208 206 206 204 208 212 209 214 220 208 215 220 188 182 200 209 232 245 229 225